Location: South Range
(44.4886°N, 65.7879°W)
Time: 13:58:01
(UTC-03:00)

Iridium 56 - Visible Passes

Search period start: 27 August 2016 00:00
Search period end: 06 September 2016 00:00
Orbit: 776 x 779 km, 86.4° (Epoch: 27 August)

Date Brightness Start Highest point End Pass type
(mag) Time Alt. Az. Time Alt. Az. Time Alt. Az.
27 Aug 7.4 20:34:44 10° NE 20:37:04 13° ENE 20:39:23 10° E visible
27 Aug 5.5 22:13:15 10° N 22:18:30 83° W 22:20:53 33° S visible
27 Aug 8.3 23:57:31 10° WNW 23:58:18 10° WNW 23:59:05 10° W visible
28 Aug 5.6 21:39:48 10° N 21:44:56 55° E 21:47:41 26° SSE visible
28 Aug 7.8 23:21:36 10° NW 23:25:10 19° WNW 23:28:10 12° WSW visible
29 Aug 6.3 21:06:37 10° NNE 21:11:14 31° ENE 21:14:30 17° SE visible
29 Aug 7.0 22:47:18 10° NNW 22:51:56 33° W 22:54:59 18° SW visible
30 Aug 7.0 20:33:51 10° NNE 20:37:25 18° ENE 20:40:57 10° ESE visible
30 Aug 6.0 22:13:25 10° N 22:18:34 59° W 22:21:50 22° SSW visible
31 Aug 5.4 21:39:49 10° N 21:45:04 79° E 21:48:42 20° S visible
31 Aug 8.2 23:22:37 10° NW 23:25:03 13° WNW 23:27:27 10° WSW visible
01 Sep 5.9 21:06:27 10° N 21:11:27 44° E 21:15:37 14° SSE visible
01 Sep 7.6 22:47:47 10° NNW 22:51:52 24° W 22:55:56 10° SW visible
02 Sep 6.6 20:33:24 10° NNE 20:37:42 25° ENE 20:41:58 10° SE visible
02 Sep 6.7 22:13:41 10° NNW 22:18:34 41° W 22:23:04 12° SSW visible
03 Sep 5.7 21:39:55 10° N 21:45:09 74° W 21:50:04 11° S visible
04 Sep 5.5 21:06:24 10° N 21:11:37 62° E 21:16:46 10° SSE visible
04 Sep 8.1 22:48:30 10° NW 22:51:45 17° WNW 22:55:00 10° WSW visible
05 Sep 6.2 20:33:09 10° NNE 20:37:56 35° E 20:42:41 10° SE visible
05 Sep 7.3 22:14:04 10° NNW 22:18:32 29° W 22:22:59 10° SW visible
